Regional Weather Roundup
Issued by NWS State College, PA

Home | Current Version | Previous Version | Graphics & Text | Print | Product List | Glossary On
Versions: 1 2 3 4 5 6 7 8 9 10 11 12 13 14 15 16 17 18 19 20 21 22 23 24 25 26 27 28 29 30 31 32 33 34 35 36 37 38 39 40 41 42 43 44 45 46 47 48 49 50
000
ASUS41 KCTP 010903
RWRCTP

REGIONAL WEATHER ROUNDUP
NATIONAL WEATHER SERVICE STATE COLLEGE PA
400 AM EST SUN MAR 01 2015

Note: "fair" indicates few or no clouds below 12,000 feet with no
significant weather and/or obstructions to visibility.

* = STATION THAT DOES NOT REPORT PRECIPITATION /E.G. RAIN...SNOW...ETC/
    THUNDER OR FOG.

PAZ002>004-007>009-013>016-020>023-029>032-011000-
WESTERN PENNSYLVANIA

CITY           SKY/WX    TMP DP  RH WIND       PRES   REMARKS
ERIE           LGT SNOW  18  14  84 CALM      30.47F FOG
MEADVILLE      SNOW      17  12  80 VRB5      30.41F WCI  10
FRANKLIN*      CLOUDY    16  10  79 E3        30.44S
NEW CASTLE     LGT SNOW  16  15  95 CALM      30.45F FOG
BEAVER COUNTY  NOT AVBL
BUTLER*        CLOUDY    19  16  86 SE6       30.45F WCI  11
PITTSBURGH INT LGT SNOW  20  17  88 SE7       30.43F VSB 1   WCI  11
PITTSBURGH     LGT SNOW  21  16  81 SE7       30.44F VSB 1   WCI  12
INDIANA*       CLOUDY    23  19  86 SE5       30.48F HAZE
LATROBE        CLOUDY    27  18  69 CALM      30.48S
WASHINGTON CO* CLOUDY    21  18  86 CALM      30.45F
$$

PAZ004>006-010>012-017>019-024>028-033>037-041-042-045-046-049>053-011000-
CENTRAL PENNSYLVANIA

CITY           SKY/WX    TMP DP  RH WIND       PRES   REMARKS
BRADFORD       LGT SNOW  15  10  80 SE7       30.39F VSB 3/4 WCI   5
DUBOIS         LGT SNOW  17  13  84 SE10      30.42F VSB 3/4 WCI   5
CLEARFIELD     LGT SNOW  14   9  80 NE5       30.48F WCI   6
JOHNSTOWN      CLOUDY    20  11  68 S8        30.40F WCI  10
ALTOONA        FLURRIES  20   9  62 S5        30.51F WCI  13
STATE COLLEGE  LGT SNOW  17  11  77 CALM      30.53F
WILLIAMSPORT   CLOUDY    13   2  61 CALM      30.64R
SELINSGROVE    CLOUDY    16   8  71 CALM      30.64F
FT INDIANTOWN  MOCLDY    13   6  73 NE2       30.65F
CAPITAL CITY   CLOUDY    20  10  65 E5        30.65F WCI  13
HARRISBURG     CLOUDY    20   9  62 SE6       30.65F WCI  12
YORK           CLOUDY    19   9  65 CALM      30.63F
$$

PAZ038>040-043-044-047-048-054-055-060>062-067>071-011000-
EASTERN PENNSYLVANIA

CITY           SKY/WX    TMP DP  RH WIND       PRES   REMARKS
SCRANTON       CLOUDY    13   0  56 CALM      30.58F
MOUNT POCONO   CLOUDY    14  -4  44 CALM      30.51S
ALLENTOWN      CLOUDY    11   3  70 NW5       30.66F WCI   3
QUAKERTOWN*    MOSUNNY   10   3  72 CALM      30.66S
READING        CLOUDY    15   5  64 CALM      30.67S
LANCASTER      CLOUDY    17  11  77 E3        30.66F
COATESVILLE    PTSUNNY   23   7  50 CALM      30.65F
POTTSTOWN      CLOUDY    16   7  67 CALM      30.69S
BLUE BELL      PTCLDY    21  12  68 CALM      30.67S
DOYLESTOWN     CLOUDY    14   7  73 CALM      30.66F
WILLOW GROVE   NOT AVBL
NORTH PHILA    CLOUDY    22   9  57 CALM      30.70F
PHILADELPHIA   CLOUDY    23  13  65 SW3       30.72S
$$



USA.gov is the U.S. government's official web portal to all federal, state and local government web resources and services.